Regional Weather Roundup
Issued by NWS

Home | Current Version | Previous Version | Graphics & Text | Print | Product List | Glossary On
Versions: 1 2 3 4 5 6 7 8 9 10 11 12 13 14 15 16 17 18 19 20 21 22 23 24 25 26 27 28 29 30 31 32 33 34 35 36 37 38 39 40 41 42 43 44 45 46 47 48 49 50
328
ASUS45 KTFX 030310
RWRMT
MONTANA REGIONAL WEATHER ROUNDUP
NATIONAL WEATHER SERVICE GREAT FALLS MT
900 PM MDT MON MAY 02 2016

NOTE: "FAIR" INDICATES FEW OR NO CLOUDS BELOW 12000 FEET WITH NO
SIGNIFICANT WEATHER AND/OR OBSTRUCTIONS TO VISIBILITY.

MTZ001>007-043-030400-
WEST OF THE DIVIDE

CITY           SKY/WX    TMP DP  RH WIND       PRES   REMARKS
KALISPELL      CLEAR     63  38  39 CALM      30.06S
MISSOULA       CLEAR     67  38  34 N13       30.06S
BUTTE          CLEAR     58  22  24 S9        30.16R
MULLAN PASS    CLEAR     55  31  39 NW5       30.19S
$$

MTZ008-052>055-030400-
SOUTHWEST MONTANA

CITY           SKY/WX    TMP DP  RH WIND       PRES   REMARKS
BOZEMAN        CLEAR     61  23  23 S6        30.12S
DILLON         CLEAR     63  19  18 CALM      30.13R
ENNIS          CLEAR     50  25  37 NE9       30.20S
$$

MTZ009-010-012-014-046-048-049-054-030400-
EAST SLOPES AND CENTRAL MONTANA

CITY           SKY/WX    TMP DP  RH WIND       PRES   REMARKS
CUT BANK         N/A     58  37  45 SE9       30.08S
GREAT FALLS    CLEAR     59  36  42 SE6       30.09S
MALMSTROM AFB  CLEAR     56  38  50 SE6       30.09S
HELENA         CLEAR     65  24  21 SW7       30.09R
$$

MTZ011-013-016-021-045-047-050-051-030400-
NORTH CENTRAL MONTANA

CITY           SKY/WX    TMP DP  RH WIND       PRES   REMARKS
HAVRE          CLEAR     56  45  66 S10       30.05F
LEWISTOWN      CLEAR     58  34  40 CALM      30.13S
N BAR RANCH      N/A     55  32  41 CALM      30.17S
$$

MTZ017>020-022>027-061-062-030400-
NORTHEAST MONTANA

CITY           SKY/WX    TMP DP  RH WIND       PRES   REMARKS
GLASGOW        CLEAR     63  41  44 N8        30.01S
JORDAN           N/A     56  45  66 W6        30.05R
SIDNEY         CLOUDY    54  34  47 NW5       30.01R
WOLF POINT     CLEAR     61  40  45 N8        30.00R
$$

MTZ028>42-056>058-030400-
SOUTHCENTRAL AND SOUTHEAST MONTANA

CITY           SKY/WX    TMP DP  RH WIND       PRES   REMARKS
BAKER          CLEAR     52  35  52 SE3       30.04R
BILLINGS       CLEAR     61  35  37 E7        30.11S
LIVINGSTON     CLEAR     55  30  38 SE7       30.12R
MILES CITY     CLEAR     59  41  51 W7        30.03S
$$

REGIONAL REPORTS...DAKOTAS

CITY           SKY/WX    TMP DP  RH WIND       PRES   REMARKS
WILLISTON      CLOUDY    51  34  52 CALM      29.99R
MINOT          CLEAR     62  35  36 S3        29.98S
DICKINSON      CLEAR     52  32  46 E5        30.01R
BEACH            N/A     48  34  57 SE5       30.06R
CROSBY           N/A     50  32  50 NW5       30.01R
TIOGA            N/A     48  32  53 CALM      30.05S
WATFORD CITY     N/A     52  34  50 SE7       30.01R
BISMARCK       CLEAR     51  43  74 E3        30.01R
GRAND FORKS    PTCLDY    58  37  45 W10       29.95R
FARGO          CLEAR     57  36  45 W9        29.97R
BUFFALO SD       N/A     51  34  52 NE12      29.98R
RAPID CITY     CLEAR     47  37  68 N9        30.02R
$$

REGIONAL REPORTS...WYOMING/IDAHO/WASHINGTON

CITY           SKY/WX    TMP DP  RH WIND       PRES   REMARKS
GILLETTE       CLOUDY    43  35  73 W9        30.11S
SHERIDAN       CLEAR     51  37  58 W12       30.13R
BUFFALO WY       N/A    N/A N/A N/A MISG      30.16R
CODY           CLEAR     55  27  33 CALM      30.16S
YELLOWSTONE LA   N/A     37  25  61 VRB3      30.27R
IDAHO FALLS    CLEAR     56  24  29 SW8       30.16S
SALMON         CLEAR     57  34  41 SE5       30.06R
BOISE          CLEAR     69  25  19 SE6       30.07R
SPOKANE        MOCLDY    74  36  25 CALM      30.04S
$$

REGIONAL REPORTS...ALBERTA

CITY           SKY/WX    TMP DP  RH WIND       PRES   REMARKS
EDMONTON       PTCLDY    66  37  34 SE5       29.95S
CALGARY        PTCLDY    70  28  21 SE10      30.02R
LETHBRIDGE     PTCLDY    63  36  36 S13       30.02S
MEDICINE HAT   PTCLDY    68  37  32 S5        30.03R
$$

REGIONAL REPORTS...SASKATCHEWAN

CITY           SKY/WX    TMP DP  RH WIND       PRES   REMARKS
SWIFT CURRENT  CLEAR     63  36  36 SE8       30.02S
REGINA         PTCLDY    64  28  25 CALM      30.00R
SASKATOON      PTCLDY    63  37  39 NW2       29.99R
$$




USA.gov is the U.S. government's official web portal to all federal, state and local government web resources and services.